Location: Carr Mill
(33.2054°N, 85.9439°W)
Time: 15:35:53
(UTC+00:00)

ISS - Pass Details

Date: 21 June 2021
Orbit: 419 x 421 km, 51.6° (Epoch: 02 August)

Event Time Altitude Azimuth Distance (km) Brightness Sun altitude
Rises 09:53:36 0° 180° (S) 2,346 -0.3 -8.2°
Reaches altitude 10° 09:57:04 10° 141° (SE) 1,489 -0.9 -7.6°
Maximum altitude 09:57:58 11° 125° (SE) 1,440 -0.8 -7.5°
Drops below altitude 10° 09:58:53 10° 110° (ESE) 1,491 -0.4 -7.3°
Sets 10:02:22 0° 71° (ENE) 2,360 1.9 -6.7°
